Погода Демьянское

Погода Демьянское : погода сейчас, прогноз погоды и архив. Всё, что Вы хотите узнать о погоде Демьянское!

Поиск расширенной информации на нашем сайте:

Другие новости

Новости СМИ2

Главная страница сайта

Новости сайта

03.07.2017

Напоминаем, что на нашем специализированном сайте Метеоцентр.Азия вы можете получить высокодетализированные автоматические прогнозы погоды по пунктам России, СНГ и мира в авиационном формате (включающие направление и скорость ветра, видимость, явления погоды, количество и форму облачности, нижнюю и верхнюю границу облачности).


Погода Демьянское - сегодня

Время (UTC), дата Ветер
(°,м/с) 
Видим.   Явления Облачность Т
(°С)
Тd
(°С)
f(%) Тe
(°С)
Pmin
(гПа)
dP
(гПа)
Po
(мм)
O2
(г/м3)
Тmin Tmax R s Состояние
почвы
12 12.08.18 280 (З) 10 км    9/3 1000 м верхняя 
[Sc|Cs]
+16.2 +7.3 56 +17  1006.6  0.6  750  284           
18 12.08.18 тихо ()   10 км    6/0 средняя, верхняя 
[Ac trans|Ci fib]
+9.8 +8.9 94 +10  1007.5  0.4  750  290           
21 12.08.18 тихо ()   10 км    6/0 верхняя 
[Ci fib]
+8.8 +8.6 99 +9  1007.9  0.4  751  292           
00 13.08.18 тихо ()   10 км    8/8 1000 м 
[Sc]
+8.2 +8.2 100 +8  1008.3  0.4  751  292           
03 13.08.18 тихо ()   10 км    9/9 1000 м 
[Sc]
+12.4 +10.9 91 +15  1008.8  0.5  751  288  +7.3         
06 13.08.18 240 (ЮЗ) 10 км    6/5 600 м средняя 
[Cu hum|Ac trans]
+19.9 +12.9 64 +26  1008.6  752  280  +7.3         
09 13.08.18 250 (З) 10 км    5/3 600 м верхняя 
[Cu med, cong|Ci fib]
+22.8 +14.8 61 +31  1008.7  0.1  752  276           
12 13.08.18 250 (З) 10 км    3/0 верхняя 
[Ci fib]
+24.3 +14.4 54 +32  1008.6  752  275           
15 13.08.18 тихо ()   10 км    ясно 
+18.8 +16.2 85 +30  1008.5  -0.2  751  280           
18 13.08.18 тихо ()   10 км    ясно 
+16.8 +16.2 96 +28  1008.5  0.1  751  282           
21 13.08.18 тихо ()   10 км    3/0 верхняя 
[Ci fib]
+17.4 +17.2 99 +30  1008.1  -0.4  751  281           
00 14.08.18 тихо ()   10 км  местами туман поземный  1/1 1000 м 
[Sc]
+16.4 +16.5 100 +28  1007.9  -0.2  751  282           
03 14.08.18 190 (Ю) 4000 м  дымка{ливн. осадки}  3/0 верхняя 
[Ci fib]
+19.5 +18.8 96 +37  1008.2  0.4  751  278  +16.3       
06 14.08.18 240 (ЮЗ) 10 км    6/4 600 м верхняя 
[Cu hum|Ci fib]
+25.2 +19.8 72 +43  1008.2  0.1  751  272           
09 14.08.18 250 (З) 10 км    9/5 600 м верхняя 
[Cu med, cong|Cs]
+28.1 +16.6 50 +40  1007.8  -0.4  751  271           
12 14.08.18 270 (З) 10 км    6/4 600 м верхняя 
[Cu hum|Ci fib]
+27.5 +14.7 46 +36  1007.6  -0.2  751  272           
18 14.08.18 130 (ЮВ) 10 км  {ливн. осадки}  8/3 1000 м верхняя 
[Sc|Cs]
+17.5 +17.4 99 +32  1008.8  0.9  752  281           
21 14.08.18 тихо ()   10 км  зарница  8/6 600 м кучево-дожд., верхняя 
[Cb cap|Cs]
+15.9 +16.1 100 +27  1007.9  -0.9  751  282           
00 15.08.18 160 (Ю) 10 км  в посл. час ливневой дождь  10/9 600 м кучево-дожд., средняя 
[Cb cap|Ac As]
+16.8 +16.8 100 +30  1007  -0.9  750  281           
03 15.08.18 290 (З) 4000 м  слаб. ливневой дождь, в посл. час гроза  10/9 300 м кучево-дожд., средняя 
[Cb cap|Ac As]
+17.3 +17.3 100 +32  1007  750  280  +15.9       
06 15.08.18 170 (Ю) 10 км  {гроза, ливн. осадки}  10/8 600 м кучево-дожд., средняя 
[Cb cap|Ac As]
+19.9 +19.1 95 +38  1007.2  0.3  750  277           
09 15.08.18 230 (ЮЗ) 10 км  {ливн. осадки}  10/9 300 м кучево-дожд., средняя 
[Cb cap|Ac As]
+22.5 +19.6 84 +40  1007.2  750  275           
12 15.08.18 120 (ЮВ) 10 км  {ливн. осадки}  8/8 600 м 
[Cu Sc]
+23.9 +18.6 72 +39  1006  -1.1  750  273           
15 15.08.18 070 (В) 4000 м  гроза без осадков{ливн. осадки} [макс. диам. градин 13 мм]  9/9 600 м кучево-дожд. 
[Cb cap]
+17.6 +17.6 100 +33  1007  0.8  750  280    +23.9  18     
18 15.08.18 030 (СВ) 4000 м  дымка{гроза, ливн. осадки}  8/8 600 м кучево-дожд. 
[Cb cap]
+17.4 +17.4 100 +32  1006.9  -0.2  750  280           
Время (UTC), дата Ветер
(°,м/с) 
Видим.   Явления Облачность Т
(°С)
Тd
(°С)
f(%) Тe
(°С)
Pmin
(гПа)
dP
(гПа)
Po
(мм)
O2
(г/м3)
Тmin Tmax R s Состояние
почвы

Для получения пояснительной информации подведите курсор к названию столбца.

ПОГОДА Демьянское - архив

Всё, что Вы хотите узнать о погоде Демьянское - удобно и подробно!

Выберите нужную дату (начиная с 1 января 2015* года) и нажмите кнопку "Найти".
Будут отображены архивные сводки погоды по пункту Демьянское, начиная с указанной даты.


Отображать данные в формате CSV (для использования в таблицах Excel)


Внимание! Наш архив погоды предназначен исключительно для личного некоммерческого использования в познавательных целях. Если Вам необходимы официальные справки о состоянии погоды (для производственных, юридических, коммерческих и т.п. целей), обращайтесь в органы Росгидромета.

*Примечание: данная дата относится к архиву по метеостанциям СССР (Россия, СНГ, Балтия).
Архив по метеостанциям Зарубежной Европы и Азии (кроме Китая) хранится 10 дней, по другим регионам земного шара (Китай, Африка, Америка, Австралия, Океания) - 1 день.

Демьянское - район местоположения метеостанции


Название, широта, долгота, высота метеостанции:
Демьянское 59.6°ш. 69.3°д. 57 м над ур. моря [Российская Федерация]

Дополнительная информация

В oтличие oт бoльшинства пoгoдных сайтoв мы публикуем пoдрoбную метеoинфoрмацию в детальнoм прoфессиoнальнoм фoрмате.

Характеристики температуры и влажнoсти вoздуха измеряются на высoте 2 м в тени вдали oт зданий и деревьев.
Скoрoсть ветра измеряется на высoте 10 м (на урoвне рoста челoвека скoрoсть ветра ниже в 1.5-2 раза). Если метеoстанция нахoдится в гoрoде или в лесу, тo скoрoсть ветра занижена на 2-4 м/с пo сравнению с oткрытым местoм. Скoрoсть ветра над акватoриями крупных рек и oзёр, а также на вершинах хoлмoв на 2-5 м/с выше, чем в oбычных услoвиях.
Атмoсфернoе давление в разных тoчках местнoсти мoжет значительнo oтличаться oт давления на метеoстанции, в зависимoсти oт услoвий рельефа (при пoдъёме на 10 м давление пoнижается примернo на 1 мм рт.ст.).